STARLINK-3772, 52290

Orbit data source: Space-Track

STARLINK-3772, 52290 is a payload satellite owned by SpaceX/Seattle (US) in LEO that was launched on Thu, 21 Apr 2022 UTC via an FALCON 9 launch vehicle from the Air Force Eastern Test Range (AFETR). Payload-class satellites include a variety of spacecraft equipped with specific instruments for various scientific and technological missions. These include communications satellites like Starlink; space stations such as the ISS; scientific satellites like the Hubble; Earth observation satellites from companies like Planet Labs, Umbra, and HawkEye 360; GPS; miniature CubeSats for education and research; and military/defense satellites.

Loading next visibility...
Identifier
52290, 2022-041AF
Orbit
LEO
Country
Flag of USUS
Related business
Manufacturer
SpaceX/Seattle
Mission
Operational Commercial Communications
Bus & Motor
STARLINK, Unknown motor
Mass
297 kg wet, ~275 kg dry
Launch date (UTC)
2022-04-21 (4 years ago)
Launch vehicle
FALCON 9
Launch site
Air Force Eastern Test Range (AFETR)
Object type
Payload
Rocket body
Debris
Shape & HBR
Box + 1 Pan, 10.1 m
Radar Cross Section
11.087 m², Large (>1 m²)

Expand to show TLE details & history
Last TLE update: 16 hours ago

TLE from 16 hours ago
0 STARLINK-3772
1 52290U 22041AF  26221.45090470  .00002109  00000-0  71312-4 0  9999
2 52290  53.1622 128.1743 0001284  93.1376 266.9774 15.35416122237631
Epoch: 2026-08-09T10:49Z
TLE epoch observation values (Epoch: 2026-08-09T10:49:18.166Z)
Latitude
-0°
Longitude
7.90089°
Altitude
460.633 km
Speed
7.638 km/s
True Right ascension
08h 32m 41s
True Declination
0° 00' 00"
Sunlit
Object was in daylight at epoch
Visualization orbit readout
Latitude
Unknown
Longitude
Unknown
Altitude
Unknown
Speed
Unknown
Apparent Right ascension
Unknown
Apparent Declination
Unknown
Sunlit
N/A
Visualization observer readout
Local Sidereal Time
16:48:16
Azimuth
Unknown
Elevation
Unknown
Doppler factor
Unknown
Orbital elements
Apogee altitude
460.819 km
Perigee altitude
459.063 km
Semi-major axis
6,838.078 km
Eccentricity
0.00013
Inclination
53.1622°
RAAN
128.1743°
Arg. of periapsis
93.1376°
True anomaly
266.96271°
Mean anomaly
266.9774°
Eccentric anomaly
266.97005°
Mean motion
3.83833 °/min
Orbital period
93.79 mins
BSTAR
0.000071312
Loading maneuver chart data...
Computing Atmospheric mass density...
Loading historical data...
Loading historical data...
Loading historical data...
Loading historical data...
Loading historical data...
Loading historical data...
Loading historical data...

Documentation

Showing up to 5 results
|